Home > Weather > Canelones > Past weeks

Flag for Uruguay Weather for the Past 2 Weeks in Canelones, Uruguay

Now
72 °F

Sunny.


Feels Like: 72 °F
Forecast: 68 / 89 °F
Wind: 5 mph from East

Location: Carrasco

Current Time: Feb 14, 2016 at 7:38:02 AM

Latest Report: Feb 14, 2016 at 7:00 AM


Visibility: 10 mi

Pressure: 29.86 "Hg

Humidity: 78%

Dew point: 64 °F

Location of CanelonesLocation

Historic Weather in Canelones — Graph

°F

Canelones Temperature Yesterday

Maximum temperature yesterday: 84 °F (at 3:00 PM)
Minimum temperature yesterday: 72 °F (at 5:00 AM)
Average temperature yesterday: 78 °F

High & Low Weather Summary for the Past Weeks

 TemperatureHumidityPressure
High100 °F (Feb 12, 2:00 PM)94% (Feb 2, 4:00 AM)30.12 "Hg (Feb 2, 4:00 AM)
Low57 °F (Feb 1, 7:00 AM)27% (Feb 12, 2:00 PM)29.62 "Hg (Feb 13, 2:00 AM)
Average76 °F70%29.93 "Hg
* Reported Jan 30 6:00 AM — Feb 14 6:00 AM, Canelones, Weather by CustomWeather, © 2016

Note: Actual official high and low records may vary slightly from our data, if they occured in-between our weather recording intervals... More about our weather records

Advertising

Canelones Weather History for the Previous 24 Hours

 ConditionsComfort  
Time TempWeatherWind HumidityBarometerVisibility
6:00 AM
Sun, Feb 14
72 °FPassing clouds.7 mph78%29.83 "HgN/A
5:00 AM72 °FPassing clouds.8 mph83%29.80 "HgN/A
4:00 AM73 °FOvercast.8 mph83%29.80 "HgN/A
3:00 AM73 °FPassing clouds.10 mph89%29.80 "HgN/A
2:00 AM75 °FPassing clouds.12 mph83%29.80 "HgN/A
1:00 AM75 °FPassing clouds.8 mph89%29.80 "HgN/A
12:00 AM77 °FPassing clouds.3 mph83%29.80 "HgN/A
11:00 PM
Sat, Feb 13
77 °FPassing clouds.5 mph83%29.80 "HgN/A
10:00 PM79 °FPassing clouds.5 mph79%29.80 "HgN/A
9:00 PM77 °FPartly cloudy.7 mph89%29.74 "HgN/A
8:00 PM79 °FPassing clouds.8 mph79%29.74 "HgN/A
7:00 PM81 °FPartly sunny.9 mph79%29.71 "HgN/A
6:00 PM82 °FBroken clouds.13 mph66%29.71 "HgN/A
5:00 PM84 °FBroken clouds.14 mph66%29.71 "HgN/A
4:00 PM84 °FBroken clouds.12 mph62%29.71 "HgN/A
3:00 PM84 °FSunny.9 mph58%29.71 "Hg10 mi
2:00 PM82 °FSunny.12 mph66%29.71 "Hg10 mi
1:00 PM81 °FSunny.10 mph66%29.71 "Hg10 mi
12:00 PM77 °FSunny.9 mph74%29.71 "Hg10 mi
11:00 AM73 °FSunny.8 mph89%29.71 "Hg10 mi
10:00 AM72 °FMostly cloudy.8 mph94%29.71 "HgN/A
9:00 AM72 °FLight rain. Mostly cloudy.12 mph94%29.71 "HgN/A
8:00 AM72 °FLight rain. Overcast.12 mph94%29.71 "Hg5 mi
7:00 AM72 °FLight rain. More clouds than sun.No wind94%29.71 "Hg4 mi
Weather by CustomWeather, © 2016

See weather overviewHow to use our weather pages